Location: Andoins
(43.3000°N, 0.2333°W)
Time: 19:10:40
(UTC+00:00)

Daily predictions for brighter satellites

Satellite Brightness Start Highest point End
(mag) Time Altitude Azimuth Time Altitude Azimuth Time Altitude Azimuth
Cosmos 1814 Rocket 4.0 19:33:14 10° NNW 19:38:30 86° ENE 19:43:40 10° SSE
Meteor 2-15 4.5 19:34:13 10° S 19:40:16 83° E 19:46:22 10° N
SL-4 R/B 2.5 19:36:09 10° NW 19:40:27 62° NNE 19:45:02 10° ESE
X-37B 1.0 19:40:08 10° W 19:43:19 64° N 19:46:30 10° ENE
Cosmos 540 Rocket 4.4 19:41:13 10° NNW 19:46:07 48° WSW 19:51:00 10° S
IRS-1A Rocket 4.5 19:44:54 10° SSE 19:50:33 62° ENE 19:56:19 10° N
SPOT 3 Rocket 4.5 19:49:27 10° SE 19:53:59 32° ENE 19:58:31 10° N
CZ-4 R/B 4.3 19:52:34 10° SW 19:54:53 15° W 19:57:11 10° WNW
ERS-2 2.9 19:52:03 10° N 19:55:37 55° WNW 19:59:09 10° SSW
Cosmos 1844 4.1 19:50:20 10° S 19:55:41 42° ESE 20:01:00 10° NE
Resurs 1-3 3.8 19:51:46 10° SSE 19:56:00 53° ENE 20:00:18 10° N
Cosmos 968 Rocket 3.6 19:51:23 10° S 19:56:32 58° ESE 20:01:40 10° NNE
Cosmos 1743 Rocket 3.5 19:53:15 10° N 19:57:36 68° E 20:01:55 10° SSE
BREEZE-M DEB (TANK) 3.9 19:53:24 10° WNW 19:57:42 74° N 20:04:52 10° E
ATLAS 5 CENTAUR R/B 3.4 19:55:01 10° NNW 19:59:56 32° NE 20:05:36 10° ESE
BREEZE M DEB (TANK) 4.1 19:59:37 10° WSW 20:03:02 68° NNW 20:13:25 10° ENE
Cosmos 1486 Rocket 4.2 19:58:54 10° S 20:04:04 55° ESE 20:09:16 10° NNE
Intercosmos 25 Rocket 4.1 20:00:23 10° N 20:06:56 63° ENE 20:11:00 10° SSE
IGS 5A 4.3 20:04:31 12° SE 20:07:53 34° ENE 20:11:40 10° N
Cosmos 1500 Rocket 3.6 20:05:09 10° N 20:09:34 88° W 20:13:56 10° S
Cosmos 2221 3.5 20:05:42 10° SSW 20:09:52 49° WNW 20:14:05 10° N
S3M 4.2 20:04:23 10° SSE 20:10:34 55° E 20:16:44 10° NNE
BREEZE-M R/B 1.6 20:08:32 10° SW 20:11:26 76° SSE 20:13:50 10° ENE
USA 186 3.7 20:10:15 10° SSW 20:12:22 21° W 20:14:23 10° NW
FALCON 9 DEB 3.3 20:15:10 10° WNW 20:18:07 52° SW 20:20:03 19° SSE
Cosmos 1933 3.7 20:17:12 10° SSE 20:21:03 43° E 20:24:53 10° NNE
USA 245 4.4 20:23:48 12° ENE 20:23:48 12° ENE 20:24:46 10° NE
FALCON 9 DEB 3.6 20:21:28 10° WNW 20:24:21 41° SW 20:26:04 20° SSE
Cosmos 1242 Rocket 3.0 20:24:03 16° SSE 20:26:35 39° E 20:29:56 10° NNE
OBJECT-B 2.8 20:24:08 10° SSW 20:26:57 27° W 20:29:47 10° NW
Cosmos 1553 Rocket 4.2 20:23:06 10° SSW 20:29:12 76° W 20:35:26 10° N
Cosmos 1437 Rocket 2.9 20:26:40 10° SSW 20:30:29 74° W 20:34:25 10° N
BREEZE M DEB (TANK) 4.0 20:25:25 10° WNW 20:31:16 34° N 20:33:45 10° ENE
FALCON 9 DEB 3.4 20:30:17 10° WNW 20:33:13 45° SW 20:34:36 25° SSE
Resurs 01 Rocket 1.6 20:29:42 15° SSE 20:33:20 78° ENE 20:37:48 10° N
Spot 2 Rocket 4.3 20:34:12 20° ESE 20:37:04 35° ENE 20:41:38 10° N
DELTA 2 R/B (1) 3.8 20:32:59 10° W 20:38:25 54° S 20:41:51 22° ESE
Sich 1 2.9 20:35:33 10° N 20:39:53 81° E 20:43:00 19° SSE
Cosmos 2082 Rocket 4.3 20:39:44 10° N 20:42:46 14° NE 20:45:46 10° ENE
Meteor 1-20 Rocket 4.1 20:37:21 10° N 20:43:00 78° E 20:47:11 18° SSE
BREEZE-M DEB (TANK) 3.8 20:42:43 10° W 20:44:35 20° SSW 20:45:33 17° S
Cosmos 1782 3.2 20:43:16 25° SSE 20:45:07 44° E 20:48:56 10° NNE
CZ-4C R/B 3.8 20:38:41 10° NNW 20:45:15 39° NE 20:51:18 16° ESE
Cosmos 1500 4.4 20:43:18 10° NNE 20:46:27 24° ENE 20:47:10 23° E
ERS-1 Rocket 3.9 20:50:52 23° ESE 20:53:02 32° ENE 20:57:28 10° N
Cosmos 1503 Rocket 3.9 20:49:42 10° SSW 20:54:51 87° ESE 21:00:05 10° NNE
SPOT 5 3.9 20:52:52 24° ESE 20:55:01 33° ENE 20:59:40 10° N
Intercosmos 24 4.4 20:53:29 10° SSW 20:57:23 54° W 21:00:52 10° N
Cosmos 1151 Rocket 2.9 20:58:03 25° S 21:00:31 70° E 21:04:53 10° NNE
Cosmos 1777 Rocket 4.5 20:58:39 28° SE 21:00:32 38° ESE 21:05:20 10° NE
USA 290 2.3 20:58:53 10° NNW 21:02:07 70° WSW 21:02:58 44° S
Terra 3.0 21:02:22 23° E 21:03:51 27° ENE 21:07:52 10° N
Cosmos 1602 3.6 21:01:03 10° N 21:04:56 86° E 21:06:20 38° S
Cosmos 2278 Rocket 2.9 21:05:44 30° SE 21:07:01 34° ESE 21:12:02 10° NE
CZ-2C R/B 3.9 21:09:06 10° N 21:13:33 68° WNW 21:17:35 13° SSW
Cosmos 1515 Rocket 3.8 21:17:35 43° ESE 21:18:16 47° E 21:22:30 10° NNE
Cosmos 1844 Rocket 4.2 21:14:16 10° WSW 21:19:22 36° WNW 21:24:31 10° N
SPOT 1/Viking Rocket 3.7 21:16:47 28° S 21:19:34 74° WSW 21:24:47 10° NNW
Cosmos 2084 3.2 21:17:53 32° SSW 21:19:41 65° SE 21:23:53 10° NE
SL-4 R/B 3.5 21:16:01 10° WNW 21:19:57 30° SW 21:21:08 26° SSW
X-37B 0.5 21:16:54 10° WNW 21:20:06 79° NNE 21:20:09 78° NNE
ARIANE 5 R/B 2.5 21:20:40 45° SSE 21:21:58 85° ENE 21:26:19 10° NNW
SWARM A 4.2 21:19:53 10° N 21:23:01 64° ENE 21:23:01 64° ENE
Cosmos 1437 3.1 21:25:46 51° N 21:25:46 51° N 21:28:02 10° N
JB-3 4.1 21:23:17 10° NNE 21:27:13 84° ESE 21:27:56 58° S
Cosmos 1633 Rocket 3.4 21:25:25 10° NNW 21:29:45 60° W 21:31:23 35° SSW
Cosmos 1812 2.6 21:31:31 69° ESE 21:31:38 70° E 21:35:30 10° NNE
Cosmos 1470 Rocket 3.5 21:34:31 10° N 21:39:01 85° W 21:39:56 57° S
Cosmos 1328 Rocket 4.1 21:36:50 27° SSW 21:39:03 56° W 21:43:25 10° N
Cosmos 2184 Rocket 4.1 21:33:19 10° N 21:39:27 57° ENE 21:41:19 42° SE
Meteor 1-5 Rocket 4.0 21:35:10 10° N 21:40:35 76° ENE 21:42:00 50° SSE
ATLAS 5 CENTAUR R/B 2.7 21:39:13 10° NW 21:44:54 58° WSW 21:47:13 38° S
CARTOSAT-1 3.9 21:44:08 47° SSW 21:45:04 59° W 21:49:21 10° NNW
Cosmos 2074 Rocket 4.0 21:41:10 10° N 21:47:28 69° E 21:49:23 45° SE
NOSS 3-3 (A) 4.2 21:44:54 10° SW 21:50:35 67° NW 21:57:07 10° NNE
NOSS 3-3 (C) 4.2 21:45:01 10° SW 21:50:42 68° NW 21:57:13 10° NNE
Cosmos 1666 2.8 21:48:55 10° N 21:52:11 64° NNE 21:52:11 64° NNE
Nadezhda 1 Rocket 4.3 21:51:52 44° SE 21:53:10 51° E 21:59:13 10° NNE
Cosmos 1933 Rocket 3.3 21:49:13 10° N 21:53:35 90° E 21:53:49 81° S
Cosmos 1833 Rocket 2.6 21:48:44 10° NNW 21:54:26 80° ENE 21:55:42 55° SE
ATLAS 2AS CENTAUR R/B 3.9 21:49:44 10° NNW 21:56:28 35° NE 22:00:31 20° E
BREEZE-M DEB (TANK) 4.1 21:57:14 10° NW 21:57:58 18° NNW 21:57:58 18° NNW
Cosmos 1538 Rocket 3.9 21:57:43 10° NNW 22:03:07 87° ENE 22:03:56 65° SSE
Iridium 4 Rocket 3.8 22:01:47 46° SSW 22:03:35 78° W 22:09:30 10° N
USA 305 4.0 21:59:52 10° NW 22:03:52 38° NNE 22:04:41 34° NE
Cosmos 1610 Rocket 4.5 22:03:24 10° N 22:09:31 64° E 22:10:38 54° SE
Resurs 01 Rocket 4.4 22:09:43 10° W 22:10:22 10° W 22:11:00 10° W
SJ 16-02 1.4 22:15:15 76° WNW 22:15:15 76° WNW 22:19:42 10° NNE
Cosmos 158 Rocket 3.8 22:10:30 10° NNW 22:15:22 67° ENE 22:15:27 67° ENE
Cosmos 2228 Rocket 3.1 22:17:34 75° NNE 22:17:34 75° NNE 22:21:39 10° N
Meteor 1-27 Rocket 3.7 22:18:37 65° SSE 22:19:21 74° E 22:25:14 10° NNE
Cosmos 1680 Rocket 4.2 22:15:55 10° N 22:20:59 43° ENE 22:21:27 42° ENE
USA 306 3.6 22:18:57 10° NW 22:23:05 48° NNE 22:23:05 48° NNE
COSMOS 2406 3.4 22:19:31 10° NNW 22:25:05 59° WSW 22:25:47 55° SW
Cosmos 2082 Rocket 2.0 22:22:11 10° NNW 22:27:50 76° ENE 22:28:19 71° ESE
ERS-1 Rocket 4.2 22:30:51 29° WSW 22:31:47 31° W 22:36:14 10° NNW
Milstar 3 4.4 22:22:46 10° WSW 22:29:42 27° SSW 22:29:42 27° SSW
SPOT 5 4.2 22:32:05 29° WSW 22:33:02 31° W 22:37:39 10° NNW
CZ-4C R/B 3.1 22:26:58 10° NW 22:34:19 64° WSW 22:36:28 49° S
Cosmos 1271 Rocket 3.9 22:35:28 39° WNW 22:35:28 39° WNW 22:39:01 10° N
Terra 2.9 22:41:15 34° WSW 22:41:28 34° W 22:45:48 10° NNW
Meteor 1-11 Rocket 4.0 22:38:32 10° NNW 22:44:25 60° W 22:45:14 55° SW
Cosmos 1295 Rocket 4.4 22:38:27 10° N 22:44:48 80° W 22:45:45 66° SSW
USA 307 3.8 22:44:14 10° NW 22:47:31 48° NNW 22:47:31 48° NNW
Cosmos 1340 Rocket 3.9 22:46:48 10° N 22:49:40 44° N 22:49:40 44° N
Cosmos 2278 Rocket 3.4 22:47:29 19° WSW 22:51:00 38° WNW 22:56:16 10° N
Spot 4 4.1 22:53:27 63° NE 22:53:27 63° NE 22:57:48 10° N
Cosmos 923 Rocket 4.1 22:50:56 10° NNW 22:55:53 72° WNW 22:55:53 72° WNW
Cosmos 1898 Rocket 3.6 22:57:39 70° NE 22:57:39 70° NE 23:02:26 10° NNE
Cosmos 1536 4.3 22:56:45 10° NNW 22:59:30 34° NW 22:59:30 34° NW
Cosmos 2369 Rocket 3.7 23:03:27 24° ENE 23:03:27 24° ENE 23:06:37 10° NE
USA 308 4.1 22:57:41 10° NW 23:00:30 40° NW 23:00:30 40° NW
Meteor 2-9 Rocket 4.4 23:04:52 10° N 23:10:35 64° ENE 23:10:35 64° ENE
Cosmos 1943 Rocket 2.5 23:11:54 56° ENE 23:11:54 56° ENE 23:16:37 10° NNE
SL-8 Rocket 3.9 23:04:49 10° N 23:11:11 80° E 23:11:34 76° SE
ALOS 2 3.5 23:16:05 45° NNE 23:16:05 45° NNE 23:19:20 10° N
DNEPR-1 R/B 4.5 23:19:56 57° ENE 23:19:56 57° ENE 23:24:02 10° NE
Meteor 2-4 Rocket 4.3 23:20:31 46° ENE 23:20:31 46° ENE 23:25:26 10° NNE
Cosmos 990 Rocket 4.5 23:20:02 52° WNW 23:20:13 52° WNW 23:25:21 10° NNE
Cosmos 44 3.7 23:15:43 10° NNW 23:20:48 66° NNE 23:20:48 66° NNE
Meteor 1-18 Rocket 4.2 23:33:04 81° N 23:33:04 81° N 23:38:24 10° N
NOSS 3-4 (A) 4.2 23:27:19 10° NW 23:34:10 49° WSW 23:34:27 49° SW
NOSS 3-4 (C) 4.2 23:27:25 10° NW 23:34:17 50° WSW 23:34:34 49° SW
Cosmos 1238 Rocket 4.0 23:30:33 10° NNW 23:36:39 62° W 23:36:39 62° W
SL-24 R/B - RUBIN 2 4.4 23:33:06 10° NW 23:37:29 57° NW 23:37:29 57° NW
SeaSat 1 3.5 23:35:02 10° NE 23:38:19 37° ENE 23:38:19 37° ENE
Cosmos 864 Rocket 4.3 23:33:44 10° N 23:39:55 80° W 23:39:58 80° WSW
Cosmos 1959 Rocket 4.4 23:36:33 10° NNW 23:42:47 74° W 23:42:51 74° W
USA 215 3.4 23:42:20 42° ESE 23:44:38 68° NE 23:51:07 10° NW
Cosmos 2297 4.2 23:45:51 51° W 23:46:20 52° WNW 23:51:55 10° NNE
ATLAS 2AS CENTAUR R/B 2.7 23:40:43 10° NW 23:47:55 64° WSW 23:47:56 64° WSW
Cosmos 2181 Rocket 4.3 23:52:11 51° W 23:52:40 53° WNW 23:58:40 10° N
